一网星座-0221星 (ONEWEB-0221 )

导读 | 星芒AI

ONEWEB-0221 是 OneWeb 卫星星座计划中的一颗低轨通信卫星,旨在为全球提供高速互联网服务。该卫星采用标准化设计,具备高容量和高效率的通信能力,支持偏远和农村地区的网络接入。作为 OneWeb 扩展其全球覆盖计划的一部分,ONEWEB-0221 与其他卫星协同工作,构建起一个可扩展的全球宽带网络,助力实现数字包容。该卫星由空中客车公司制造,并通过火箭发射进入近地轨道,为全球用户提供稳定、低延迟的互联网连接。

基本信息
目录编号:
48789
目录名称:
ONEWEB-0221
国际标识:
2021-045Y
轨道中心:
EARTH
卫星名称:
一网星座-0221星
卫星全名:
一网星座-0221星 (ONEWEB-0221 )
卫星状态:
在轨 (已飞行1663 天)
发射日期:
2021-05-28 UTC
国别 :
英国 (GB)
星等 :
--
轨道信息
数据来源 国际轨道数据
星历时间: 2025-12-15T16:05:47+0800
18小时前
查看轨道信息
半长轴: 7579.906km
偏心率: 0.0001993
轨道倾角: 87.900°
近地点辐角 72.864°
升交点赤经 295.867°
平近点角 287.271°
近地点: 1200.26km
远地点: 1203.282km
周期: 109.460分钟
每日圈数: 13.155492
详细信息
平衡模式:
三轴稳定
覆盖范围:
全球
运营商:
一网卫星公司
运营商所在国:
英国
制造商(研发单位):
一网卫星公司
制造商所在国:
英国
使用方式:
暂无
卫星简介
OneWeb卫星网络由648颗重约125公斤的微型卫星组成,运行在1200公里的轨道上。 每颗卫星都能够提供至少每秒8千兆位的吞吐量,以使用其高吞吐量的Ku频段有效载荷为家庭和移动平台提供互联网接入。该卫星仍在工作。
2D轨道图
3D轨道图
轨道高度分析图
轨道倾角分析图
轨道综合分析图
查看轨道综合分析图